Terminal Aerodrome Forecast
Issued by NWS Tallahassee, FL

Home | Current Version | Previous Version | Text Only | Print | Product List | Glossary On
Versions: 1 2 3 4 5 6 7 8 9 10 11 12 13 14 15 16
000
FTUS42 KTAE 231700
TAFTLH
TAF
KTLH 231724Z 2318/2418 05010KT P6SM SCT040
     FM240100 06008KT P6SM FEW030
     FM240900 04006KT P6SM BKN010
     FM241500 04008KT P6SM SCT020=

USA.gov is the U.S. government's official web portal to all federal, state and local government web resources and services.